TimeCST,TemperatureF,Dew PointF,Humidity,Sea Level PressureIn,VisibilityMPH,Wind Direction,Wind SpeedMPH,Gust SpeedMPH,PrecipitationIn,Events,Conditions,WindDirDegrees,DateUTC
12:15 AM,33.8,27.7,78,29.93,10.0,ENE,11.5,-,N/A,,Clear,60,2013-02-26 06:15:00
12:35 AM,33.4,27.5,79,29.92,10.0,ENE,10.4,-,N/A,,Clear,60,2013-02-26 06:35:00
12:55 AM,33.4,27.9,80,29.91,10.0,ENE,11.5,-,N/A,,Clear,60,2013-02-26 06:55:00
1:15 AM,33.4,27.7,79,29.91,10.0,NE,9.2,-,N/A,,Mostly Cloudy,50,2013-02-26 07:15:00
1:35 AM,33.4,27.9,80,29.90,10.0,ENE,12.7,17.3,N/A,,Scattered Clouds,60,2013-02-26 07:35:00
1:55 AM,33.8,27.7,78,29.88,10.0,NE,12.7,-,N/A,,Scattered Clouds,50,2013-02-26 07:55:00
2:15 AM,33.8,27.9,79,29.86,10.0,NE,15.0,18.4,N/A,,Scattered Clouds,40,2013-02-26 08:15:00
2:35 AM,34.2,28.0,78,29.86,10.0,NE,13.8,17.3,N/A,,Overcast,40,2013-02-26 08:35:00
2:55 AM,34.3,27.9,77,29.83,10.0,NE,13.8,20.7,N/A,,Overcast,40,2013-02-26 08:55:00
3:15 AM,34.3,28.0,78,29.83,10.0,NE,13.8,19.6,N/A,,Overcast,50,2013-02-26 09:15:00
3:35 AM,34.3,28.2,78,29.82,10.0,NE,15.0,19.6,N/A,,Mostly Cloudy,50,2013-02-26 09:35:00
3:55 AM,34.0,28.4,80,29.81,10.0,NE,13.8,21.9,N/A,,Overcast,50,2013-02-26 09:55:00
4:15 AM,34.3,28.6,79,29.79,10.0,NE,16.1,21.9,N/A,,Overcast,40,2013-02-26 10:15:00
4:35 AM,34.2,28.6,80,29.79,10.0,NE,16.1,21.9,N/A,,Overcast,40,2013-02-26 10:35:00
4:55 AM,34.2,28.4,79,29.77,10.0,NE,18.4,23.0,N/A,,Mostly Cloudy,40,2013-02-26 10:55:00
5:15 AM,34.3,28.4,79,29.75,10.0,NE,19.6,27.6,N/A,,Mostly Cloudy,40,2013-02-26 11:15:00
5:35 AM,34.7,28.4,78,29.74,10.0,NE,23.0,29.9,N/A,,Overcast,40,2013-02-26 11:35:00
5:55 AM,34.7,28.6,78,29.71,10.0,NNE,24.2,32.2,N/A,,Overcast,30,2013-02-26 11:55:00
6:15 AM,34.7,28.4,78,29.69,10.0,NNE,21.9,32.2,N/A,,Overcast,30,2013-02-26 12:15:00
6:35 AM,34.9,28.4,77,29.71,10.0,NE,17.3,31.1,N/A,,Overcast,40,2013-02-26 12:35:00
6:55 AM,35.1,28.2,76,29.74,10.0,ENE,16.1,25.3,N/A,,Overcast,60,2013-02-26 12:55:00
7:15 AM,35.1,28.0,76,29.73,10.0,NE,21.9,29.9,N/A,,Overcast,50,2013-02-26 13:15:00
7:35 AM,35.4,27.5,73,29.72,10.0,ENE,19.6,29.9,N/A,,Overcast,60,2013-02-26 13:35:00
7:55 AM,35.6,27.7,73,29.72,10.0,NE,23.0,28.8,N/A,,Overcast,50,2013-02-26 13:55:00
8:15 AM,35.8,27.5,72,29.72,10.0,NE,18.4,26.5,N/A,,Scattered Clouds,50,2013-02-26 14:15:00
8:35 AM,35.8,27.3,71,29.71,10.0,NE,17.3,26.5,N/A,,Scattered Clouds,50,2013-02-26 14:35:00
8:55 AM,35.8,27.3,71,29.70,10.0,NE,20.7,26.5,N/A,,Mostly Cloudy,40,2013-02-26 14:55:00
9:15 AM,36.5,27.3,69,29.69,10.0,NE,19.6,27.6,N/A,,Overcast,40,2013-02-26 15:15:00
9:35 AM,36.5,27.1,69,29.67,10.0,NNE,20.7,29.9,N/A,,Overcast,30,2013-02-26 15:35:00
9:55 AM,36.5,27.0,68,29.66,10.0,NNE,21.9,27.6,N/A,,Overcast,30,2013-02-26 15:55:00
10:15 AM,36.5,27.1,69,29.66,10.0,NNE,18.4,32.2,N/A,,Overcast,30,2013-02-26 16:15:00
10:35 AM,36.0,27.1,70,29.65,10.0,NNE,18.4,27.6,N/A,,Overcast,30,2013-02-26 16:35:00
10:55 AM,36.1,26.6,68,29.66,10.0,NE,23.0,28.8,N/A,,Overcast,40,2013-02-26 16:55:00
11:15 AM,36.5,26.6,67,29.66,10.0,NE,18.4,26.5,N/A,,Overcast,40,2013-02-26 17:15:00
11:35 AM,36.5,26.6,67,29.64,10.0,NNE,19.6,29.9,N/A,,Overcast,30,2013-02-26 17:35:00
11:55 AM,36.5,26.8,68,29.64,10.0,NNE,17.3,27.6,N/A,,Overcast,30,2013-02-26 17:55:00
12:15 PM,35.8,26.8,70,29.64,10.0,NNE,16.1,26.5,N/A,,Overcast,30,2013-02-26 18:15:00
12:35 PM,35.8,26.6,69,29.63,10.0,NNE,23.0,28.8,N/A,,Overcast,30,2013-02-26 18:35:00
12:55 PM,34.3,27.3,76,29.61,4.0,NNE,21.9,27.6,N/A,Snow,Light Snow,30,2013-02-26 18:55:00
1:15 PM,34.7,26.8,73,29.60,7.0,NNE,19.6,27.6,N/A,Snow,Light Snow,20,2013-02-26 19:15:00
1:35 PM,35.6,26.4,69,29.59,10.0,NNE,21.9,31.1,N/A,,Overcast,20,2013-02-26 19:35:00
1:55 PM,35.2,26.2,70,29.57,10.0,NNE,24.2,34.5,N/A,,Overcast,20,2013-02-26 19:55:00
2:15 PM,34.3,27.1,75,29.58,4.0,NNE,25.3,36.8,N/A,Snow,Light Snow,30,2013-02-26 20:15:00
2:35 PM,33.8,27.5,78,29.58,4.0,NNE,21.9,33.4,N/A,Snow,Light Snow,30,2013-02-26 20:35:00
2:55 PM,32.7,29.3,87,29.58,1.0,NNE,18.4,27.6,N/A,Snow,Light Snow,30,2013-02-26 20:55:00
3:15 PM,32.2,29.8,91,29.60,1.5,NNE,19.6,27.6,N/A,Snow,Light Snow,30,2013-02-26 21:15:00
3:35 PM,32.0,30.2,93,29.60,1.2,NNE,17.3,25.3,N/A,Snow,Light Snow,20,2013-02-26 21:35:00
3:55 PM,32.0,29.8,92,29.59,2.0,North,17.3,26.5,N/A,Snow,Light Snow,10,2013-02-26 21:55:00
4:15 PM,32.0,29.3,90,29.60,4.0,NNE,18.4,25.3,N/A,Snow,Light Snow,20,2013-02-26 22:15:00
4:35 PM,32.0,29.3,90,29.61,5.0,NNE,15.0,20.7,N/A,,Overcast,20,2013-02-26 22:35:00
4:55 PM,32.0,29.3,90,29.61,3.0,NNE,16.1,25.3,N/A,Snow,Light Snow,20,2013-02-26 22:55:00
5:15 PM,32.0,29.3,90,29.61,2.5,North,19.6,27.6,N/A,Snow,Light Snow,10,2013-02-26 23:15:00
5:35 PM,32.4,28.9,87,29.61,5.0,NNE,17.3,28.8,N/A,,Overcast,20,2013-02-26 23:35:00
5:55 PM,32.2,29.1,88,29.62,4.0,NNE,18.4,31.1,N/A,Snow,Light Snow,20,2013-02-26 23:55:00
6:15 PM,32.0,29.3,90,29.62,5.0,North,18.4,27.6,N/A,Snow,Light Snow,10,2013-02-27 00:15:00
6:35 PM,32.4,29.1,88,29.63,5.0,North,17.3,29.9,N/A,Snow,Light Snow,10,2013-02-27 00:35:00
6:55 PM,32.4,29.7,90,29.63,3.0,North,18.4,26.5,N/A,Snow,Light Snow,10,2013-02-27 00:55:00
7:15 PM,32.4,30.0,91,29.63,2.0,North,17.3,25.3,N/A,Snow,Light Snow,10,2013-02-27 01:15:00
7:35 PM,32.2,30.2,92,29.63,3.0,North,16.1,23.0,N/A,Snow,Light Snow,10,2013-02-27 01:35:00
7:55 PM,32.0,30.6,94,29.62,1.0,North,16.1,24.2,N/A,Snow,Light Snow,10,2013-02-27 01:55:00
8:15 PM,32.4,30.6,93,29.62,2.0,North,15.0,26.5,N/A,Snow,Light Snow,10,2013-02-27 02:15:00
8:35 PM,32.0,30.6,94,29.62,1.5,North,18.4,23.0,N/A,Snow,Light Snow,10,2013-02-27 02:35:00
8:55 PM,32.2,30.4,93,29.62,2.5,North,17.3,24.2,N/A,Snow,Light Snow,10,2013-02-27 02:55:00
9:15 PM,32.2,30.2,92,29.62,5.0,North,18.4,24.2,N/A,Snow,Light Snow,10,2013-02-27 03:15:00
9:35 PM,32.2,30.0,92,29.62,7.0,North,13.8,20.7,N/A,Snow,Light Snow,10,2013-02-27 03:35:00
9:55 PM,32.4,29.8,90,29.62,7.0,North,13.8,23.0,N/A,Snow,Light Snow,360,2013-02-27 03:55:00
10:15 PM,32.4,30.0,91,29.63,5.0,North,11.5,17.3,N/A,Snow,Light Snow,360,2013-02-27 04:15:00
10:35 PM,32.2,30.0,92,29.63,3.0,North,13.8,19.6,N/A,Snow,Light Snow,360,2013-02-27 04:35:00
10:55 PM,32.0,30.2,93,29.63,4.0,North,12.7,-,N/A,Snow,Light Snow,360,2013-02-27 04:55:00
11:15 PM,32.0,29.8,92,29.63,7.0,North,13.8,17.3,N/A,Snow,Light Snow,360,2013-02-27 05:15:00
11:35 PM,32.0,29.5,90,29.63,4.0,North,12.7,-,N/A,Snow,Light Snow,350,2013-02-27 05:35:00
11:55 PM,32.0,29.3,90,29.63,4.0,North,16.1,20.7,N/A,Snow,Light Snow,350,2013-02-27 05:55:00